sat.trackr.live / text

‹ back to catalog

FLOCK 4G-31

NORAD 62652 · 2025-009AV

PAYLOAD ACTIVE UNKNOWN

§ Identity

Operator
Country
US
Launch date
2025-01-14
Launch site
AFWTR
Launch vehicle
Mass (kg)
RCS (m²)

Purposes: earth_obs

External: N2YO · Heavens-Above · Gunter

§ Orbital elements

Epoch: 2026-09-19T12:46:35.386464Z

Period
94.07 min
Inclination
97.3912°
Eccentricity
0.0001540
Mean motion
15.30707853 rev/d
Perigee alt
472.6 km
Apogee alt
474.8 km
Semi-major
6,851.8 km
B*
2.2499e-4
RAAN
343.6466°
Arg perigee
45.0644°
Mean anomaly
315.0722°
Rev number
9,333

§ Raw data

FLOCK 4G-311 62652U 25009AV  26262.53235401  .00006601  00000+0  22499-3 0  99992 62652  97.3912 343.6466 0001540  45.0644 315.0722 15.30707853 93336

JSON: /api/v1/satellites/62652 · /tle

For live sub-satellite position, see the globe view (requires WebGL).

§ Visibility from observer

Set your observer location to see the next 7 days of passes ≥ 10°. The values pass through the URL so the page stays shareable.

No JS? Fill the form by hand. The geolocation button needs JavaScript.